Location: Sulphur Springs (historical)
(38.1246°N, 122.1900°W)
Time: 04:11:14
(UTC+00:00)

Cosmos 1726 Rocket - Pass Details

Date: 29 October 2020
Orbit: 603 x 629 km, 82.5° (Epoch: 29 November)

Event Time Altitude Azimuth Distance (km) Brightness Sun altitude
Rises 12:57:04 0° 351° (N) 2,922 6.9 -19.2°
Reaches altitude 10° 12:59:19 10° 350° (N) 2,012 6.0 -18.8°
Maximum altitude 13:03:46 77° 264° (W) 649 3.4 -17.9°
Drops below altitude 10° 13:08:12 10° 179° (S) 1,998 6.2 -17.0°
Sets 13:10:25 0° 178° (S) 2,899 7.1 -16.6°
